sat.trackr.live / text

‹ back to catalog

STARLINK-35397

NORAD 65825 · 2025-221C

PAYLOAD ACTIVE UNKNOWN

§ Identity

Operator
Country
US
Launch date
2025-09-29
Launch site
AFWTR
Launch vehicle
Mass (kg)
RCS (m²)

Purposes: comms

External: N2YO · Heavens-Above · Gunter

§ Orbital elements

Epoch: 2026-09-20T16:23:26.601792Z

Period
93.85 min
Inclination
53.1571°
Eccentricity
0.0001602
Mean motion
15.34405039 rev/d
Perigee alt
461.6 km
Apogee alt
463.8 km
Semi-major
6,840.8 km
B*
4.2089e-4
RAAN
258.6561°
Arg perigee
69.2164°
Mean anomaly
290.9010°
Rev number
5,599

§ Raw data

STARLINK-353971 65825U 25221C   26263.68294678  .00013873  00000+0  42089-3 0  99942 65825  53.1571 258.6561 0001602  69.2164 290.9010 15.34405039 55993

JSON: /api/v1/satellites/65825 · /tle

For live sub-satellite position, see the globe view (requires WebGL).

§ Visibility from observer

Set your observer location to see the next 7 days of passes ≥ 10°. The values pass through the URL so the page stays shareable.

No JS? Fill the form by hand. The geolocation button needs JavaScript.